Weather reports worldwide

Advertisment
Pershore college of horticulture, United Kingdom (99059): temperature & dewpoint: 25.10.2020 18:00:00 - 31.10.2020 18:00:00 (GMT)Pershore college of horticulture, United Kingdom (99059): temperature -20cm & temperature -100cm: 25.10.2020 18:00:00 - 31.10.2020 18:00:00 (GMT)Pershore college of horticulture, United Kingdom (99059): precipitation: 25.10.2020 18:00:00 - 31.10.2020 18:00:00 (GMT)
Date & Time tt [°C] td [°C] tt -20cm [°C] tt -100cm [°C] rr [mm]
31.10.2020 18:00:00 10,3 6,7 - - 0,0
31.10.2020 17:00:00 10,7 6,1 - - 0,0
31.10.2020 16:00:00 11,8 6,7 - - 0,0
31.10.2020 15:00:00 12,9 7,2 - - 0,0
31.10.2020 14:00:00 13,6 7,8 - - 0,0
31.10.2020 13:00:00 12,8 10,0 - - 1,8
31.10.2020 12:00:00 14,7 13,6 - - 0,8
31.10.2020 11:00:00 14,1 13,0 - - 3,2
31.10.2020 10:00:00 13,7 12,7 - - 2,8
31.10.2020 09:00:00 14,7 12,4 12,4 13,0 0,2
31.10.2020 08:00:00 14,1 12,5 - - 0,0
31.10.2020 07:00:00 14,2 12,1 - - 0,0
31.10.2020 06:00:00 14,2 11,9 - - 0,2
31.10.2020 05:00:00 13,8 12,1 - - 0,0
31.10.2020 04:00:00 13,8 12,8 - - 0,0
31.10.2020 03:00:00 14,3 13,0 - - 0,0
31.10.2020 02:00:00 14,7 12,9 - - 0,0
31.10.2020 01:00:00 14,3 13,3 - - 0,0
31.10.2020 00:00:00 14,7 13,4 - - 0,0
30.10.2020 23:00:00 14,5 13,5 - - 0,0
30.10.2020 22:00:00 13,8 13,5 - - 0,0
30.10.2020 21:00:00 13,5 13,1 - - 0,4
30.10.2020 20:00:00 13,4 12,8 - - 0,2
30.10.2020 19:00:00 14,4 12,6 - - 0,0
30.10.2020 18:00:00 14,3 13,1 - - 0,0
30.10.2020 17:00:00 14,7 13,1 - - 0,0
30.10.2020 16:00:00 15,0 13,4 - - 0,0
30.10.2020 15:00:00 15,5 13,7 - - 0,0
30.10.2020 14:00:00 15,5 13,9 - - 0,0
30.10.2020 13:00:00 15,8 14,0 - - 0,0
30.10.2020 12:00:00 15,2 13,8 - - 0,0
30.10.2020 11:00:00 14,8 13,5 - - 0,0
30.10.2020 10:00:00 14,4 13,2 - - 0,0
30.10.2020 09:00:00 14,2 13,2 11,7 13,0 0,0
30.10.2020 08:00:00 14,2 13,0 - - 0,0
30.10.2020 07:00:00 13,9 12,8 - - 0,0
30.10.2020 06:00:00 13,8 12,9 - - 0,0
30.10.2020 05:00:00 13,7 12,7 - - 0,0
30.10.2020 04:00:00 13,7 12,5 - - 0,0
30.10.2020 03:00:00 13,6 12,5 - - 0,0
30.10.2020 02:00:00 13,5 12,4 - - 0,0
30.10.2020 01:00:00 13,6 12,2 - - 0,0
30.10.2020 00:00:00 14,0 11,7 - - 0,0
29.10.2020 23:00:00 13,9 11,7 - - 0,0
29.10.2020 22:00:00 14,1 11,7 - - 0,0
29.10.2020 21:00:00 13,7 12,0 - - 0,0
29.10.2020 20:00:00 13,9 12,1 - - 0,0
29.10.2020 19:00:00 13,9 12,0 - - 0,0
29.10.2020 18:00:00 13,9 12,1 - - 0,0
29.10.2020 17:00:00 14,1 11,9 - - 0,0
29.10.2020 16:00:00 14,1 12,0 - - 0,0
29.10.2020 15:00:00 13,8 12,2 - - 0,0
29.10.2020 14:00:00 13,6 12,0 - - 0,0
29.10.2020 13:00:00 13,4 12,0 - - 0,0
29.10.2020 12:00:00 13,1 12,0 - - 0,2
29.10.2020 11:00:00 12,6 11,1 - - 0,0
29.10.2020 10:00:00 12,0 10,4 - - 0,0
29.10.2020 09:00:00 11,1 9,8 10,9 13,2 0,0
29.10.2020 08:00:00 10,5 9,4 - - 0,0
29.10.2020 07:00:00 10,1 8,5 - - 0,0
29.10.2020 06:00:00 9,2 7,4 - - 0,0
29.10.2020 05:00:00 8,6 6,5 - - 0,0
29.10.2020 04:00:00 7,6 5,9 - - 0,0
29.10.2020 03:00:00 6,9 5,6 - - 0,0
29.10.2020 02:00:00 6,8 5,3 - - 0,0
29.10.2020 01:00:00 6,4 5,0 - - 0,0
29.10.2020 00:00:00 6,3 5,0 - - 0,0
28.10.2020 23:00:00 6,4 4,8 - - 0,0
28.10.2020 22:00:00 6,4 5,0 - - 0,0
28.10.2020 21:00:00 6,7 5,6 - - 0,0
28.10.2020 20:00:00 6,7 5,3 - - 0,0
28.10.2020 19:00:00 7,0 5,5 - - 0,0
28.10.2020 18:00:00 7,5 5,2 - - 0,0
28.10.2020 17:00:00 9,0 5,8 - - 0,0
28.10.2020 16:00:00 9,1 6,9 - - 0,0
28.10.2020 15:00:00 9,1 6,9 - - 0,0
28.10.2020 14:00:00 9,0 7,1 - - 0,2
28.10.2020 13:00:00 10,1 6,8 - - 0,0
28.10.2020 12:00:00 9,6 7,9 - - 0,4
28.10.2020 11:00:00 9,9 7,1 - - 0,0
28.10.2020 10:00:00 9,9 7,7 - - 0,0
28.10.2020 09:00:00 8,5 6,6 11,2 13,2 0,0
28.10.2020 08:00:00 8,1 6,4 - - 0,0
28.10.2020 07:00:00 7,3 6,2 - - 0,0
28.10.2020 06:00:00 7,4 6,4 - - 0,0
28.10.2020 05:00:00 7,4 6,5 - - 0,0
28.10.2020 04:00:00 7,2 6,5 - - 0,0
28.10.2020 03:00:00 7,3 6,3 - - 2,0
28.10.2020 02:00:00 8,0 5,0 - - 0,0
28.10.2020 01:00:00 8,1 5,7 - - 0,0
28.10.2020 00:00:00 8,4 6,1 - - 0,0
27.10.2020 23:00:00 8,1 6,0 - - 0,0
27.10.2020 22:00:00 8,8 5,7 - - 0,0
27.10.2020 21:00:00 8,2 5,7 - - 0,0
27.10.2020 20:00:00 8,6 5,6 - - 0,0
27.10.2020 19:00:00 8,6 5,4 - - 0,0
27.10.2020 18:00:00 9,3 4,8 - - 0,0
27.10.2020 17:00:00 10,8 5,0 - - 0,0
27.10.2020 16:00:00 12,1 5,8 - - 0,0
27.10.2020 15:00:00 14,0 9,8 - - 0,0
27.10.2020 14:00:00 13,9 12,0 - - 0,0
27.10.2020 13:00:00 12,8 11,7 - - 0,0
27.10.2020 12:00:00 12,1 11,2 - - 0,2
27.10.2020 11:00:00 11,6 9,8 - - 0,0
27.10.2020 10:00:00 11,1 9,3 - - 0,0
27.10.2020 09:00:00 9,6 8,3 11,5 13,4 0,0
27.10.2020 08:00:00 8,5 7,3 - - 0,2
27.10.2020 07:00:00 8,2 7,2 - - 0,8
27.10.2020 06:00:00 8,7 7,1 - - 0,0
27.10.2020 05:00:00 8,5 7,2 - - 0,0
27.10.2020 04:00:00 7,9 6,9 - - 0,0
27.10.2020 03:00:00 7,3 6,8 - - 0,0
27.10.2020 02:00:00 5,9 5,6 - - 0,0
27.10.2020 01:00:00 6,0 5,5 - - 0,0
27.10.2020 00:00:00 6,6 5,7 - - 0,0
26.10.2020 23:00:00 6,9 5,6 - - 0,0
26.10.2020 22:00:00 7,6 6,0 - - 0,0
26.10.2020 21:00:00 8,0 5,9 - - 0,0
26.10.2020 20:00:00 7,8 5,3 - - 0,0
26.10.2020 19:00:00 8,3 6,1 - - 0,0
26.10.2020 18:00:00 8,3 5,7 - - 0,0
26.10.2020 17:00:00 9,7 6,2 - - 0,0
26.10.2020 16:00:00 11,3 6,4 - - 0,0
26.10.2020 15:00:00 12,8 6,3 - - 0,0
26.10.2020 14:00:00 12,7 6,8 - - 0,0
26.10.2020 13:00:00 14,1 8,0 - - 0,0
26.10.2020 12:00:00 11,9 8,4 - - 0,0
26.10.2020 11:00:00 12,0 9,5 - - 0,0
26.10.2020 10:00:00 10,8 9,0 - - 0,0
26.10.2020 09:00:00 9,3 8,1 11,7 13,5 0,0
26.10.2020 08:00:00 8,7 7,5 - - 0,0
26.10.2020 07:00:00 7,5 6,8 - - 0,0
26.10.2020 06:00:00 7,2 6,3 - - 0,0
26.10.2020 05:00:00 7,1 6,2 - - 0,0
26.10.2020 04:00:00 7,3 6,3 - - 0,2
26.10.2020 03:00:00 7,2 6,2 - - 0,0
26.10.2020 02:00:00 7,2 6,1 - - 0,0
26.10.2020 01:00:00 7,5 6,1 - - 0,0
26.10.2020 00:00:00 7,2 6,1 - - 0,0
25.10.2020 23:00:00 6,8 5,9 - - 0,0
25.10.2020 22:00:00 7,4 6,1 - - 0,0
25.10.2020 21:00:00 8,2 6,6 - - 0,0
25.10.2020 20:00:00 8,1 7,8 - - 0,0
25.10.2020 19:00:00 7,3 6,6 - - 0,2
25.10.2020 18:00:00 8,4 7,5 - - 0,2

tt = temperature
td = dewpoint
tt -20cm = temperature -20cm
tt -100cm = temperature -100cm
rr = precipitation

Next stations